Regional Weather Roundup
Issued by NWS

Home | Current Version | Previous Version | Graphics & Text | Print | Product List | Glossary On
Versions: 1 2 3 4 5 6 7 8 9 10 11 12 13 14 15 16 17 18 19 20 21 22 23 24 25 26 27
000
ASUS43 KDMX 181307
RWRIA

WEATHER ROUNDUP FOR IOWA
NATIONAL WEATHER SERVICE DES MOINES IA
800 AM CDT FRI APR 18 2014

NOTE: "FAIR" INDICATES FEW OR NO CLOUDS BELOW 12,000 FEET WITH NO
SIGNIFICANT WEATHER AND/OR OBSTRUCTIONS TO VISIBILITY.

* - THESE STATIONS ARE NOT NWS STATIONS...THUS NOT UNDER NWS
QUALITY CONTROL.  THEY ALSO DO NOT REPORT WEATHER SUCH
AS PRECIPITATION OR FOG.

IAZ001>003-012>014-020>022-031>034-043>046-181400-
   NORTHWEST IOWA

CITY           SKY/WX    TMP DP  RH WIND       PRES   REMARKS
CARROLL *      SUNNY     34  30  86 SE8       30.31S FOG     WCI  27
CHEROKEE *     SUNNY     36  32  87 SE7       30.29S WCI  30
DENISON *      SUNNY     36  32  87 SE7       30.29R WCI  30
LE MARS *      SUNNY     36  30  80 SE13G20   30.26S WCI  27
ORANGE CITY *  SUNNY     36  30  80 SE7       30.25F WCI  30
SHELDON *      MOSUNNY   34  30  86 SE13      30.26S WCI  25
SIOUX CITY     MOSUNNY   33  29  85 SE7       30.26S WCI  27
SPENCER        SUNNY     33  29  85 SE10      30.30S FOG     WCI  25
STORM LAKE *   MIX PCPN  32  32 100 SE10      30.30S WCI  24
$$

IAZ055>058-069>071-079>083-090>094-181400-
   SOUTHWEST IOWA

CITY           SKY/WX    TMP DP  RH WIND       PRES   REMARKS
ATLANTIC *     SUNNY     36  32  87 CALM      30.31R
AUDUBON *      SUNNY     36  30  80 CALM      30.31S
CLARINDA *     SUNNY     32  30  93 CALM      30.33S FOG
COUNCIL BLFS * SUNNY     36  30  80 SE7       30.28S WCI  30
CRESTON *      SUNNY     36  32  87 E8        30.32R FOG     WCI  29
HARLAN  *      SUNNY     36  32  87 S3        30.34R
LAMONI         SUNNY     38  32  79 E5        30.33R WCI  34
RED OAK *      SUNNY     34  30  86 CALM      30.32R
SHENANDOAH *   SUNNY     32  30  93 NE3       30.32S FOG
$$

IAZ047>049-059>061-072>074-084-181400-
   CENTRAL IOWA

CITY           SKY/WX    TMP DP  RH WIND       PRES   REMARKS
AMES           SUNNY     32  29  88 E5        30.35R FOG     WCI  27
ANKENY *       SUNNY     34  30  86 CALM      30.35S FOG
CHARITON *     SUNNY     37  34  87 SE6       30.35R FOG     WCI  33
DES MOINES     SUNNY     37  30  75 E7        30.35R WCI  32
GRINNELL*      SUNNY     34  30  86 E7        30.36R FOG     WCI  28
KNOXVILLE *    SUNNY     36  32  87 E6        30.35R WCI  31
MARSHALLTOWN   SUNNY     33  30  88 E6        30.34R FOG     WCI  28
NEWTON *       SUNNY     32  30  93 E6        30.36R FOG     WCI  26
PELLA *        SUNNY     36  32  87 E7        30.36R WCI  30
PERRY *          N/A     34  30  86 E7        30.34R FOG     WCI  28
$$

IAZ004>006-015-016-023>025-035-036-181400-
   NORTH CENTRAL IOWA

CITY           SKY/WX    TMP DP  RH WIND       PRES   REMARKS
ALGONA *       SUNNY     34  30  86 SE9       30.33S WCI  26
CLARION *      SUNNY     34  30  86 E9        30.34R WCI  26
ESTHERVILLE    SUNNY     31  30  96 SE9       30.31R FOG     WCI  23
FORT DODGE *   SUNNY     32  28  86 SE6       30.34R WCI  26
MASON CITY     PTSUNNY   32  30  92 SE6       30.36R FOG     WCI  26
FOREST CITY *  CLOUDY    32  32 100 SE5       30.34R FOG     WCI  27
IOWA FALLS *     N/A     32  30  93 E7        30.35S FOG     WCI  26
$$

IAZ007>011-017>019-026>030-037>042-050>054-066-181400-
   NORTHEAST IOWA

CITY           SKY/WX    TMP DP  RH WIND       PRES   REMARKS
CEDAR RAPIDS   SUNNY     28  27  96 NE6       30.35R WCI  22
CHARLES CITY * PTSUNNY   32  28  86 CALM      30.36S FOG
CLINTON *      SUNNY     36  32  87 N6        30.38R WCI  31
DECORAH *      PTSUNNY   30  28  93 CALM      30.36R FOG
DUBUQUE        SUNNY     33  30  88 NE5       30.36R WCI  29
MONTICELLO *   SUNNY     32  30  93 CALM      30.37R FOG
OELWEIN *      SUNNY    N/A N/A N/A E7        30.36R
WATERLOO       MOSUNNY   30  28  92 CALM      30.36R FOG
$$

IAZ064-065-067-068-078-181400-
   EAST CENTRAL IOWA

CITY           SKY/WX    TMP DP  RH WIND       PRES   REMARKS
DAVENPORT      SUNNY     36  32  85 N6        30.37R FOG     WCI  31
IOWA CITY      SUNNY     36  31  82 NE8       30.37R WCI  30
MT. PLEASANT * SUNNY     37  32  81 N7        30.35S FOG     WCI  32
MUSCATINE *    SUNNY     37  32  81 NE7       30.37R WCI  32
QUAD CITIES    SUNNY     39  33  79 CALM      30.35R
$$

IAZ062-063-075>077-085>089-095>099-181400-
   SOUTHEAST IOWA

CITY           SKY/WX    TMP DP  RH WIND       PRES   REMARKS
BURLINGTON     SUNNY     41  35  79 NE5       30.34R
FAIRFIELD *    SUNNY     36  32  87 NE6       30.36R FOG     WCI  31
FORT MADISON * SUNNY     37  36  93 NE5       30.35S WCI  34
KEOKUK *       SUNNY     39  36  87 NE3       30.34S
OSKALOOSA *      N/A     34  32  93 CALM      30.35R FOG
CENTERVILLE *  SUNNY     36  34  93 E3        30.36R
OTTUMWA        SUNNY     34  30  85 NE7       30.35R FOG     WCI  28
WASHINGTON *   SUNNY     36  32  87 NE7       30.36R FOG     WCI  30
$$

ABBREVIATIONS USED IN REMARKS
   TC - TEMPERATURES IN CELSIUS
  WCI - WIND CHILL INDEX
   HX - HEAT INDEX
  VSB - VISIBILITY
$$




USA.gov is the U.S. government's official web portal to all federal, state and local government web resources and services.